Weather History for Nome, AK

Change the Weather History Date:

Friday, October 14, 2011

  Actual Average Record
Temperature  
Mean Temperature 37 °F 30 °F  
Max Temperature 44 °F 35 °F 47 °F (1969)
Min Temperature 30 °F 24 °F 4 °F (1996)
Degree Days  
Heating Degree Days 28 35  
Month to date heating degree days 433 454  
Since 1 July heating degree days 2040 1984  
Cooling Degree Days 0    
Month to date cooling degree days 0  
Year to date cooling degree days 0  
Moisture  
Dew Point 33 °F    
Average Humidity 0    
Maximum Humidity 0    
Minimum Humidity 0    
Precipitation  
Precipitation T in 0.05 in 0.70 in (1958)
Month to date precipitation 0.84 0.82  
Year to date precipitation 15.08 13.72  
Snow  
Snow 0.00 in 0.20 in 2.10 in (1959)
Month to date snowfall T 1.3  
Since 1 July snowfall T 1.9  
Since 1 September snowfall 0.0 1.9  
Snow Depth 0.00 in    
Sea Level Pressure  
Sea Level Pressure 29.26 in    
Wind  
Wind Speed 6 mph (NNW)    
Max Wind Speed 14 mph    
Max Gust Speed 18 mph    
Visibility 10 miles    
Events Rain    
T = Trace of Precipitation, MM = Missing Value Source: NWS Daily Summary

Daily Weather History Graph

Daily Weather History Graph

Search for Another Location

Airport:

Trip Planner

Search our weather history database for the weather conditions in past years. The results will help you decide how hot, cold, wet, or windy it might be!

Date:

Astronomy

Oct. 14, 2011 Rise Set
Actual Time 9:50 AM AKDT 7:44 PM AKDT
Civil Twilight 9:00 AM AKDT 8:33 PM AKDT
Nautical Twilight 8:04 AM AKDT 9:28 PM AKDT
Astronomical Twilight 7:07 AM AKDT 10:26 PM AKDT
Moon 7:27 PM AKDT (10/14) 2:05 PM AKDT (10/14)
Length of Visible Light 11h 32m
Length of Day
9h 53m
Waning Gibbous, 93% of the Moon is Illuminated
Oct 14
Waning Gibbous
Oct 19
Last Quarter
Oct 26
New
Nov 2
First Quarter
Nov 10
Full

Hourly Weather History & Observations

Time (AKDT) Temp. Windchill Dew Point Humidity Pressure Visibility Wind Dir Wind Speed Gust Speed Precip Events Conditions
12:39 AM 41.0 °F 34.7 °F 37.4 °F 87% 29.29 in 10.0 mi SSE 10.4 mph - N/A   Overcast
12:53 AM 41.0 °F 33.9 °F 37.9 °F 89% 29.29 in 9.0 mi SSE 12.7 mph - 0.00 in Rain Light Rain
1:18 AM 39.2 °F 31.6 °F 37.4 °F 93% 29.28 in 7.0 mi SSE 12.7 mph - 0.00 in Rain Light Rain
1:53 AM 39.9 °F 33.9 °F 37.9 °F 93% 29.28 in 8.0 mi SSE 9.2 mph - 0.00 in   Overcast
2:25 AM 39.2 °F 34.2 °F 37.4 °F 93% 29.28 in 8.0 mi SSE 6.9 mph - N/A   Overcast
2:53 AM 39.9 °F 35.1 °F 37.9 °F 93% 29.28 in 8.0 mi SE 6.9 mph - N/A   Overcast
3:15 AM 39.2 °F 35.0 °F 37.4 °F 93% 29.27 in 7.0 mi East 5.8 mph - N/A   Overcast
3:35 AM 37.4 °F 32.1 °F 37.4 °F 100% 29.26 in 8.0 mi East 6.9 mph - N/A   Mostly Cloudy
3:53 AM 37.9 °F 32.1 °F 36.0 °F 93% 29.27 in 8.0 mi ENE 8.1 mph - N/A   Mostly Cloudy
4:16 AM 37.4 °F 32.1 °F 35.6 °F 93% 29.26 in 9.0 mi ENE 6.9 mph - N/A   Overcast
4:40 AM 37.4 °F 32.1 °F 35.6 °F 93% 29.26 in 10.0 mi ENE 6.9 mph - N/A   Mostly Cloudy
4:53 AM 37.0 °F 32.4 °F 34.0 °F 89% 29.26 in 10.0 mi ENE 5.8 mph - N/A   Mostly Cloudy
5:53 AM 35.1 °F 31.0 °F 32.0 °F 89% 29.24 in 10.0 mi NNE 4.6 mph - N/A   Mostly Cloudy
6:14 AM 35.6 °F 32.8 °F 33.8 °F 93% 29.24 in 10.0 mi NNE 3.5 mph - N/A   Mostly Cloudy
6:53 AM 37.0 °F 31.0 °F 34.0 °F 89% 29.24 in 10.0 mi NE 8.1 mph - N/A   Overcast
7:53 AM 35.1 °F 29.3 °F 33.1 °F 92% 29.23 in 10.0 mi North 6.9 mph - N/A   Mostly Cloudy
8:53 AM 34.0 °F 27.2 °F 30.9 °F 89% 29.23 in 10.0 mi North 8.1 mph - N/A   Scattered Clouds
9:53 AM 33.1 °F 27.7 °F 30.0 °F 89% 29.24 in 10.0 mi North 5.8 mph - N/A   Scattered Clouds
10:53 AM 33.1 °F 28.7 °F 30.0 °F 89% 29.24 in 10.0 mi North 4.6 mph - N/A   Mostly Cloudy
11:53 AM 34.0 °F 28.8 °F 30.9 °F 89% 29.24 in 10.0 mi WNW 5.8 mph - N/A   Mostly Cloudy
12:53 PM 36.0 °F 31.1 °F 32.0 °F 86% 29.24 in 10.0 mi NNW 5.8 mph - N/A   Mostly Cloudy
1:53 PM 37.0 °F 34.5 °F 33.1 °F 86% 29.24 in 10.0 mi West 3.5 mph - N/A   Mostly Cloudy
2:53 PM 41.0 °F 37.1 °F 34.0 °F 76% 29.24 in 10.0 mi WNW 5.8 mph - N/A   Mostly Cloudy
3:53 PM 43.0 °F 41.3 °F 32.0 °F 65% 29.24 in 10.0 mi NNW 3.5 mph - N/A   Scattered Clouds
4:53 PM 44.1 °F 40.1 °F 32.0 °F 63% 29.24 in 10.0 mi NNW 6.9 mph - N/A   Scattered Clouds
4:55 PM 44.1 °F 40.1 °F 32.0 °F 63% 29.24 in 10.0 mi NNW 6.9 mph - N/A   Scattered Clouds
5:53 PM 43.0 °F 38.8 °F 33.1 °F 68% 29.25 in 10.0 mi NNW 6.9 mph - N/A   Scattered Clouds
5:55 PM 43.0 °F 38.8 °F 33.1 °F 68% 29.25 in 10.0 mi NNW 6.9 mph - N/A   Scattered Clouds
6:53 PM 39.9 °F 36.7 °F 30.9 °F 70% 29.26 in 10.0 mi NW 4.6 mph - N/A   Scattered Clouds
6:55 PM 39.9 °F 36.7 °F 30.9 °F 70% 29.26 in 10.0 mi NW 4.6 mph - N/A   Scattered Clouds
7:53 PM 35.1 °F 32.2 °F 32.0 °F 89% 29.26 in 10.0 mi West 3.5 mph - N/A   Scattered Clouds
7:55 PM 35.1 °F 32.2 °F 32.0 °F 89% 29.26 in 10.0 mi West 3.5 mph - N/A   Scattered Clouds
8:53 PM 34.0 °F 28.0 °F 30.0 °F 85% 29.28 in 10.0 mi WNW 6.9 mph - N/A   Scattered Clouds
8:55 PM 34.0 °F 28.0 °F 30.0 °F 85% 29.28 in 10.0 mi WNW 6.9 mph - N/A   Scattered Clouds
9:53 PM 34.0 °F 28.0 °F 30.0 °F 85% 29.30 in 10.0 mi West 6.9 mph - N/A   Mostly Cloudy
10:55 PM 32.0 °F 27.5 °F 30.0 °F 92% 29.31 in 10.0 mi NW 4.6 mph - N/A   Scattered Clouds
11:53 PM 30.0 °F 26.5 °F 28.0 °F 92% 29.33 in 10.0 mi WNW 3.5 mph - N/A   Scattered Clouds